TimeEST,TemperatureF,Dew PointF,Humidity,Sea Level PressureIn,VisibilityMPH,Wind Direction,Wind SpeedMPH,Gust SpeedMPH,PrecipitationIn,Events,Conditions,WindDirDegrees,DateUTC
12:53 AM,27.0,23.0,85,30.02,9.0,ENE,8.1,-,N/A,,Clear,60,2013-02-26 05:53:00
1:53 AM,28.0,23.0,81,30.00,10.0,ENE,6.9,-,N/A,,Clear,60,2013-02-26 06:53:00
2:53 AM,28.0,23.0,81,29.97,10.0,ENE,6.9,-,N/A,,Clear,60,2013-02-26 07:53:00
3:53 AM,30.0,24.1,79,29.92,10.0,ENE,9.2,-,N/A,,Clear,70,2013-02-26 08:53:00
4:53 AM,32.0,24.1,73,29.89,10.0,East,9.2,-,N/A,,Clear,80,2013-02-26 09:53:00
5:53 AM,32.0,23.0,69,29.88,10.0,East,9.2,-,N/A,,Clear,90,2013-02-26 10:53:00
6:53 AM,32.0,24.1,73,29.85,10.0,East,13.8,-,N/A,,Clear,80,2013-02-26 11:53:00
7:53 AM,33.1,24.1,70,29.81,10.0,East,12.7,-,N/A,,Mostly Cloudy,80,2013-02-26 12:53:00
8:53 AM,34.0,27.0,75,29.81,8.0,East,10.4,-,0.00,Rain,Light Rain,90,2013-02-26 13:53:00
9:14 AM,33.8,28.4,81,29.77,2.5,ESE,10.4,-,0.01,Rain,Light Rain,110,2013-02-26 14:14:00
9:28 AM,35.6,30.2,81,29.75,5.0,East,12.7,-,0.02,Rain,Light Rain,100,2013-02-26 14:28:00
9:53 AM,35.1,32.0,89,29.78,6.0,East,11.5,-,0.02,Rain,Light Rain,100,2013-02-26 14:53:00
10:04 AM,35.6,32.0,87,29.74,7.0,East,11.5,-,0.00,Rain,Light Rain,90,2013-02-26 15:04:00
10:53 AM,35.1,32.0,89,29.74,4.0,East,12.7,-,0.04,Rain,Light Rain,90,2013-02-26 15:53:00
11:53 AM,35.1,32.0,89,29.68,4.0,East,13.8,-,0.01,Rain,Light Rain,90,2013-02-26 16:53:00
12:01 PM,35.6,32.0,87,29.64,3.0,East,16.1,-,0.01,Rain,Light Rain,90,2013-02-26 17:01:00
12:53 PM,37.0,34.0,89,29.62,4.0,East,13.8,-,0.08,Rain,Light Rain,100,2013-02-26 17:53:00
1:01 PM,37.4,35.6,93,29.58,2.5,East,15.0,21.9,0.02,Rain,Rain,100,2013-02-26 18:01:00
1:17 PM,37.4,35.6,93,29.59,7.0,ESE,11.5,-,0.04,Rain,Light Rain,110,2013-02-26 18:17:00
1:53 PM,37.0,35.1,93,29.62,4.0,SE,10.4,-,0.08,Rain,Rain,140,2013-02-26 18:53:00
2:06 PM,37.4,33.8,87,29.57,1.8,ESE,15.0,20.7,0.05,Rain,Rain,120,2013-02-26 19:06:00
2:15 PM,37.4,35.6,93,29.56,3.0,ESE,15.0,-,0.07,Rain,Light Rain,120,2013-02-26 19:15:00
2:41 PM,37.4,35.6,93,29.55,2.5,SE,13.8,-,0.12,Rain,Rain,130,2013-02-26 19:41:00
2:53 PM,37.0,35.1,93,29.57,3.0,ESE,16.1,21.9,0.14,Rain,Light Rain,120,2013-02-26 19:53:00
3:27 PM,37.4,35.6,93,29.52,8.0,ESE,16.1,-,0.03,Rain,Light Rain,120,2013-02-26 20:27:00
3:35 PM,37.4,35.6,93,29.52,10.0,ESE,17.3,-,0.03,,Overcast,120,2013-02-26 20:35:00
3:45 PM,37.4,35.6,93,29.51,9.0,ESE,18.4,-,0.03,,Overcast,120,2013-02-26 20:45:00
3:53 PM,37.9,36.0,93,29.53,10.0,ESE,19.6,-,0.03,,Overcast,110,2013-02-26 20:53:00
5:42 PM,37.4,35.6,93,29.47,8.0,SE,18.4,31.1,0.02,Rain,Light Rain,130,2013-02-26 22:42:00
5:53 PM,37.9,35.1,89,29.49,10.0,ESE,19.6,28.8,0.02,,Mostly Cloudy,120,2013-02-26 22:53:00
6:48 PM,37.4,35.6,93,29.46,10.0,SE,17.3,25.3,N/A,,Overcast,130,2013-02-26 23:48:00
6:53 PM,37.9,35.1,89,29.49,10.0,SE,18.4,25.3,N/A,,Overcast,130,2013-02-26 23:53:00
7:53 PM,37.9,36.0,93,29.50,9.0,SE,16.1,24.2,0.04,Rain,Light Rain,140,2013-02-27 00:53:00
8:03 PM,37.4,35.6,93,29.47,7.0,SE,18.4,-,0.00,Rain,Light Rain,130,2013-02-27 01:03:00
8:35 PM,37.4,35.6,93,29.46,8.0,SE,17.3,25.3,0.03,Rain,Light Rain,140,2013-02-27 01:35:00
8:53 PM,39.0,36.0,89,29.48,10.0,SE,17.3,27.6,0.03,Rain,Light Rain,140,2013-02-27 01:53:00
9:46 PM,39.2,37.4,93,29.45,10.0,SSE,15.0,-,0.01,,Overcast,150,2013-02-27 02:46:00
9:53 PM,39.9,37.9,93,29.47,10.0,SSE,15.0,-,0.01,,Overcast,160,2013-02-27 02:53:00
10:23 PM,39.2,37.4,93,29.44,10.0,SSE,11.5,-,N/A,,Overcast,160,2013-02-27 03:23:00
10:53 PM,41.0,39.0,93,29.47,10.0,South,13.8,-,N/A,,Overcast,180,2013-02-27 03:53:00
11:53 PM,41.0,39.0,93,29.49,10.0,SSW,11.5,-,0.00,,Overcast,200,2013-02-27 04:53:00